Regional Weather Roundup
Issued by NWS

Home | Current Version | Previous Version | Text Only | Print | Product List | Glossary Off
Versions: 1 2 3 4 5 6 7 8 9 10 11 12 13 14 15 16 17 18 19 20 21 22 23 24 25 26 27 28 29 30 31 32 33 34 35 36 37 38 39 40 41 42 43 44 45 46 47 48 49 50

000
ASUS43 KLOT 291010
RWRIL

ILLINOIS REGIONAL WEATHER ROUNDUP
NATIONAL WEATHER SERVICE CHICAGO/ROMEOVILLE IL
400 AM CST THU JAN 29 2015

NOTE: "FAIR" INDICATES FEW OR NO CLOUDS BELOW 12,000 FEET WITH NO
SIGNIFICANT WEATHER AND/OR OBSTRUCTIONS TO VISIBILITY.

* THESE STATIONS ARE NOT UNDER NWS QUALITY CONTROL. THEY ALSO MAY NOT
  REPORT WEATHER SUCH AS PRECIPITATION OR FOG.

ILZ001-002-007-009-015-016-024-291100-
NORTHWEST ILLINOIS

CITY           SKY/WX    TMP DP  RH WIND       PRES   REMARKS
MOLINE         CLOUDY    34  29  82 NW14      29.74R WCI  25
STERLING*      PTCLDY    28  27  93 CALM      29.70R
SAVANNA*       CLOUDY    32  30  91 N5        29.74R WCI  27
$$

ILZ003-004-008-010-011-017-018-291100-
NORTH CENTRAL ILLINOIS

CITY           SKY/WX    TMP DP  RH WIND       PRES   REMARKS
ROCKFORD       CLOUDY    31  27  85 NE3       29.72F
FREEPORT*      CLOUDY    29  27  93 NW5       29.73R FOG     WCI  24
ROCHELLE*      PTCLDY    27  25  95 CALM      29.70F
DE KALB*       CLEAR     29  26  88 SE3       29.69F
PERU*          CLEAR     34  31  88 SE5       29.68F WCI  30
$$

ILZ005-006-012>014-019>023-291100-
NORTHEAST ILLINOIS

CITY           SKY/WX    TMP DP  RH WIND       PRES   REMARKS
CHICAGO-OHARE  MOCLDY    33  27  78 S7        29.70F WCI  27
CHICAGO-MIDWAY MOCLDY    39  28  64 S9        29.71F WCI  33
AURORA         PTCLDY    32  26  78 SE5       29.70F WCI  27
LANSING*       CLOUDY    36  28  72 S8        29.72F WCI  29
JOLIET*        PTCLDY    34  28  79 S5        29.71F WCI  30
WAUKEGAN       MOCLDY    31  26  82 CALM      29.71F
DUPAGE AIRPORT PTCLDY    33  26  75 S6        29.69F WCI  28
KANKAKEE*      PTCLDY    36  31  81 S9G16     29.71F WCI  29
WHEELING       MOCLDY    34  26  72 S7        29.72F WCI  28
MORRIS*        PTCLDY    32  30  90 SE6       29.69F WCI  27
ROMEOVILLE*    PTCLDY    33  28  79 S9        29.71F WCI  26
NORTHERLY ISL    N/A     37  27  67 S7          N/A  WCI  32
$$

LMZ740>746-291100-
SOUTHERN LAKE MICHIGAN

STATION/POSITION SKY/WX   TEMP    WIND        PRES    VSBY  WAVE
                          AIR SEA DIR/SP/G                  HT/PER
                          (F)     (DEG/KT/KT) (MB)    (MI)  (FT/S)
WAUKEGAN HARBOR            33      CALM  /  6   N/A
HARRISON CRIB              36     160/ 12/ 14   N/A
BURNHAM HARBOR             37     180/  4/ 11   N/A
CALUMET HARBOR             37     170/  8/ 12   N/A
MICHIGAN CITY              37     140/ 14/ 20   N/A
$$

ILZ025>027-034>036-040-047-049-050-058-095>099-291100-
WEST-CENTRAL ILLINOIS

CITY           SKY/WX    TMP DP  RH WIND       PRES   REMARKS
QUINCY         CLOUDY    40  34  79 NW21G33   29.81R
GALESBURG*     CLOUDY    37  33  87 W22G29    29.72R WCI  25
MACOMB*        CLOUDY    38  34  84 NW26G40   29.77R WCI  27
JACKSONVILLE*  MOCLDY    47  38  73 W21G26    29.76R
PITTSFIELD*    PTCLDY    46  37  71 W14G21    29.80R
$$

ILZ028>032-037-038-041>044-048-051>054-059>061-291100-
CENTRAL ILLINOIS

CITY           SKY/WX    TMP DP  RH WIND       PRES   REMARKS
PONTIAC        CLEAR     36  32  87 S6        29.69F WCI  31
BLOOMINGTON    PTCLDY    39  35  85 SW10      29.68F WCI  32
DECATUR        CLOUDY    44  36  73 SW21      29.72F
PEORIA         CLOUDY    39  33  79 SW7       29.68S WCI  34
LACON*         PTCLDY    37  32  83 CALM      29.67S
LINCOLN*       CLOUDY    43  36  75 SW8       29.69F
SPRINGFIELD    CLOUDY    46  37  71 SW15G21   29.73R
TAYLORVILLE    CLOUDY    41  36  81 SW14      29.74S
$$

ILZ033-039-045-046-055>057-062-063-291100-
EAST-CENTRAL ILLINOIS

CITY           SKY/WX    TMP DP  RH WIND       PRES   REMARKS
CHAMPAIGN      CLOUDY    38  32  79 S20       29.71F WCI  28
DANVILLE*      CLOUDY    39  31  73 S15G21    29.71F WCI  30
RANTOUL*       CLOUDY    38  33  81 S12       29.71F WCI  30
MATTOON        CLOUDY    40  31  70 S13       29.74F
PARIS*         CLOUDY    38  32  78 S12       29.77F WCI  31
$$

ILZ079-100>102-291100-
SOUTHWEST ILLINOIS

CITY           SKY/WX    TMP DP  RH WIND       PRES   REMARKS
ALTON          MOCLDY    45  37  73 SW8       29.78R
BELLEVILLE     CLOUDY    48  40  73 VRB3      29.79R
CAHOKIA*       MOCLDY    52  40  63 SW9       29.78R
SPARTA*        CLOUDY    49  38  66 SW9       29.82F
$$

ILZ064>066-069>071-074>076-080>082-084>086-088>090-092>094-291100-
SOUTH-CENTRAL ILLINOIS

CITY           SKY/WX    TMP DP  RH WIND       PRES   REMARKS
CARBONDALE     CLOUDY    50  36  58 SW13      29.86F
CAIRO*         CLOUDY    55  39  55 S12G17    29.90S
EFFINGHAM*     CLOUDY    45  31  59 S8        29.79F
MARION         CLOUDY    50  37  62 S15G28    29.85F
MT. VERNON     CLOUDY    46  36  66 S13       29.82F
CENTRALIA*     CLOUDY    48  36  63 SW21      29.79F
SALEM*         CLOUDY    51  38  61 SW21G28   29.79F
METROPOLIS*    CLOUDY    53  37  55 SW12G18   29.89S
$$

ILZ067-068-072-073-078-083-087-091-291100-
SOUTHEAST ILLINOIS

CITY           SKY/WX    TMP DP  RH WIND       PRES   REMARKS
LAWRENCEVILLE  CLOUDY    42  34  73 S16       29.83F
FLORA*         CLOUDY    45  35  69 S12G17    29.81F
FAIRFIELD*     CLOUDY    47  36  64 S10G18    29.81F
HARRISBURG*    CLOUDY    51  36  55 SW17      29.86F
ROBINSON*      CLOUDY    40  33  74 S12       29.83F
CARMI*         CLOUDY    49  39  68 S12       29.84F
$$

ABBREVIATIONS USED IN REMARKS
   TC - TEMPERATURE IN CELSIUS
  WCI - WIND CHILL INDEX
   HX - HEAT INDEX
  VSB - VISIBILITY
$$




USA.gov is the U.S. government's official web portal to all federal, state and local government web resources and services.